Погода в Угледаре

Украина / Донецкая область     47°46′44″N   37°14′53″E
темп.,
°C
ветер,
м/с
пор.,
м/с
влажн.,
%
обл.,
%
осадки,
мм/ч
давл.,
гПа
погр.,
м
17 мая, пн
пн1700:00+17в51371100 0.0 1004244
03:00+17вюв71564100 0.0 1003318
06:00+15вюв715663 0.0 1003317
09:00+20ююв8117396 0.0 1004677
12:00+21ю71074100 0.0 1005741
15:00+24ю675589 0.0 10051212
18:00+21ююв6772100 0.0 1006626
21:00+16ю3793100 0.0 1008239
18 мая, вт
вт1800:00+14юв4697100 0.0 1009160
03:00+14ю4797100 0.0 1009157
06:00+14ю3596100 0.0 1009191
09:00+18ю347841 0.1 1008735
12:00+21ююз776196 2.3 10081543
15:00+21ююз895448 2.4 10071782
18:00+19ююз7106697 0.0 10081319
21:00+15ю6118229 0.0 1008528
19 мая, ср
ср1900:00+13ююв5109765 0.1 1008283
03:00+12ю4897100 0.5 1008250
06:00+12ю3894100 0.0 1008287
09:00+17ю79644 0.0 10081296
12:00+18ююз91256100 0.8 10081858
15:00+15ююз81176100 1.8 10081141
18:00+15ююз6979100 0.6 10091013
21:00+12юз7118988 0.9 1010669
20 мая, чт
чт2000:00+12зюз8149199 0.2 1011728
03:00+10юз6149630 0.2 1013478
06:00+11зюз614920 0.0 1014500
09:00+17зюз710675 0.0 10151073
12:00+21зюз685132 0.0 10151837
15:00+22зюз564354 0.0 10152380
18:00+20з1160100 0.0 101531
21:00+15ю457329 0.0 101770
21 мая, пт
пт2100:00+13ююв336259 0.0 101739
03:00+12вюв46735 0.0 101774
06:00+13вюв511795 0.0 1017232
09:00+19вюв711586 0.0 1016693
12:00+23вюв89502 0.0 10161105
15:00+25вюв89470 0.0 10141130
18:00+23юв711630 0.0 1014849
21:00+19вюв615750 0.0 1014466